|
NORAD ID: 37733 Int'l Code: 2011-030D
Perigee: 701.8 km
Apogee: 931.7 km
Inclination: 98.4 °
Period: 101.1 minutes
Semi major axis: 7187 km
Launch date: July 6, 2011
Source: People's Republic of China (PRC)
Note: This is SATELLITE DEBRIS
Two Line Element Set (TLE):
1 37733U 11030D 13139.16505013 .00001097 00000-0 42975-3 0 3245
2 37733 098.4225 202.5486 0159958 336.4997 074.9462 14.24667764 97195
Source:
NASA's NSSDC Master Catalog entry for CZ-2C DEB
|